Time,TemperatureF,DewpointF,PressureIn,WindDirection,WindDirectionDegrees,WindSpeedMPH,WindSpeedGustMPH,Humidity,HourlyPrecipIn,Conditions,Clouds,dailyrainin,SoftwareType,DateUTC
2013-11-09 00:01:00,49.3,37.6,29.86,South,181,17.5,25.3,64,0.00,,,0.00,WeatherDisplay:10.37,2013-11-09 06:01:00,
2013-11-09 00:06:00,49.2,37.5,29.86,SSW,200,16.0,24.2,64,0.00,,,0.00,WeatherDisplay:10.37,2013-11-09 06:06:00,
2013-11-09 00:11:00,49.1,37.4,29.85,SSW,207,20.1,25.3,64,0.00,,,0.00,WeatherDisplay:10.37,2013-11-09 06:11:00,
2013-11-09 00:16:00,49.0,37.3,29.85,South,187,18.8,23.0,64,0.00,,,0.00,WeatherDisplay:10.37,2013-11-09 06:16:00,
2013-11-09 00:21:00,48.9,37.3,29.85,SSW,210,18.4,20.0,64,0.00,,,0.00,WeatherDisplay:10.37,2013-11-09 06:21:00,
2013-11-09 00:26:00,48.8,37.6,29.85,SSW,203,17.7,25.3,65,0.00,,,0.00,WeatherDisplay:10.37,2013-11-09 06:26:00,
2013-11-09 00:31:00,48.6,37.7,29.86,SSW,212,14.9,25.3,66,0.00,,,0.00,WeatherDisplay:10.37,2013-11-09 06:31:00,
2013-11-09 00:36:00,48.5,37.7,29.85,SW,226,20.3,26.5,66,0.00,,,0.00,WeatherDisplay:10.37,2013-11-09 06:36:00,
2013-11-09 00:41:00,48.7,37.5,29.86,SSW,207,17.1,21.9,65,0.00,,,0.00,WeatherDisplay:10.37,2013-11-09 06:41:00,
2013-11-09 00:46:00,48.6,37.4,29.85,SSW,195,14.4,25.3,65,0.00,,,0.00,WeatherDisplay:10.37,2013-11-09 06:46:00,
2013-11-09 00:51:00,48.4,37.6,29.86,SSW,194,15.2,19.6,66,0.00,,,0.00,WeatherDisplay:10.37,2013-11-09 06:51:00,
2013-11-09 00:56:00,48.4,37.6,29.86,SSW,210,15.8,20.7,66,0.00,,,0.00,WeatherDisplay:10.37,2013-11-09 06:56:00,
2013-11-09 01:01:00,48.2,37.8,29.86,SW,228,14.8,19.6,67,0.00,,,0.00,WeatherDisplay:10.37,2013-11-09 07:01:00,
2013-11-09 01:06:00,48.2,37.8,29.86,SSW,203,17.1,20.7,67,0.00,,,0.00,WeatherDisplay:10.37,2013-11-09 07:06:00,
2013-11-09 01:11:00,48.3,37.8,29.85,SW,222,18.0,20.0,67,0.00,,,0.00,WeatherDisplay:10.37,2013-11-09 07:11:00,
2013-11-09 01:16:00,48.3,37.8,29.85,SSE,162,15.8,19.6,67,0.00,,,0.00,WeatherDisplay:10.37,2013-11-09 07:16:00,
2013-11-09 01:21:00,48.2,38.1,29.85,SW,228,17.1,21.0,68,0.00,,,0.00,WeatherDisplay:10.37,2013-11-09 07:21:00,
2013-11-09 01:26:00,48.2,38.1,29.86,SSW,198,15.1,20.7,68,0.00,,,0.00,WeatherDisplay:10.37,2013-11-09 07:26:00,
2013-11-09 01:31:00,48.1,38.0,29.85,SSW,208,18.0,19.6,68,0.00,,,0.00,WeatherDisplay:10.37,2013-11-09 07:31:00,
2013-11-09 01:37:00,48.0,38.3,29.86,SW,217,15.3,21.9,69,0.00,,,0.00,WeatherDisplay:10.37,2013-11-09 07:37:00,
2013-11-09 01:42:00,48.0,38.3,29.86,WSW,238,14.2,19.6,69,0.00,,,0.00,WeatherDisplay:10.37,2013-11-09 07:42:00,
2013-11-09 01:47:00,48.1,38.4,29.86,SW,224,13.7,19.6,69,0.00,,,0.00,WeatherDisplay:10.37,2013-11-09 07:47:00,
2013-11-09 01:52:00,48.2,38.5,29.86,SW,221,16.7,19.6,69,0.00,,,0.00,WeatherDisplay:10.37,2013-11-09 07:52:00,
2013-11-09 01:57:00,48.3,38.6,29.86,SW,225,14.5,21.9,69,0.00,,,0.00,WeatherDisplay:10.37,2013-11-09 07:57:00,
2013-11-09 02:02:00,48.3,38.6,29.86,SW,228,14.4,19.6,69,0.00,,,0.00,WeatherDisplay:10.37,2013-11-09 08:02:00,
2013-11-09 02:07:00,48.3,38.6,29.86,SW,225,14.5,19.6,69,0.00,,,0.00,WeatherDisplay:10.37,2013-11-09 08:07:00,
2013-11-09 02:12:00,48.1,38.8,29.86,SW,226,14.6,18.4,70,0.00,,,0.00,WeatherDisplay:10.37,2013-11-09 08:12:00,
2013-11-09 02:17:00,48.0,38.7,29.86,SW,224,14.6,18.4,70,0.00,,,0.00,WeatherDisplay:10.37,2013-11-09 08:17:00,
2013-11-09 02:22:00,48.0,38.7,29.86,SW,228,14.2,18.4,70,0.00,,,0.00,WeatherDisplay:10.37,2013-11-09 08:22:00,
2013-11-09 02:27:00,47.9,38.9,29.86,WSW,237,13.3,19.6,71,0.00,,,0.00,WeatherDisplay:10.37,2013-11-09 08:27:00,
2013-11-09 02:32:00,47.7,38.8,29.86,SW,214,14.0,16.1,71,0.00,,,0.00,WeatherDisplay:10.37,2013-11-09 08:32:00,
2013-11-09 02:37:00,47.9,38.9,29.86,SW,220,14.9,17.3,71,0.00,,,0.00,WeatherDisplay:10.37,2013-11-09 08:37:00,
2013-11-09 02:42:00,47.9,38.9,29.85,SW,228,13.9,16.1,71,0.00,,,0.00,WeatherDisplay:10.37,2013-11-09 08:42:00,
2013-11-09 02:47:00,47.7,38.8,29.85,SW,225,12.7,16.1,71,0.00,,,0.00,WeatherDisplay:10.37,2013-11-09 08:47:00,
2013-11-09 02:52:00,47.6,39.0,29.86,WSW,246,12.9,16.1,72,0.00,,,0.00,WeatherDisplay:10.37,2013-11-09 08:52:00,
2013-11-09 02:57:00,47.5,38.9,29.85,SW,233,10.8,15.0,72,0.00,,,0.00,WeatherDisplay:10.37,2013-11-09 08:57:00,
2013-11-09 03:02:00,47.4,38.8,29.86,SW,226,13.1,16.1,72,0.00,,,0.00,WeatherDisplay:10.37,2013-11-09 09:02:00,
2013-11-09 03:07:00,47.5,38.9,29.86,SW,228,12.5,16.1,72,0.00,,,0.00,WeatherDisplay:10.37,2013-11-09 09:07:00,
2013-11-09 03:12:00,47.5,38.9,29.86,WSW,238,12.9,15.0,72,0.00,,,0.00,WeatherDisplay:10.37,2013-11-09 09:12:00,
2013-11-09 03:17:00,47.6,39.0,29.85,WSW,238,11.9,15.0,72,0.00,,,0.00,WeatherDisplay:10.37,2013-11-09 09:17:00,
2013-11-09 03:22:00,47.7,39.1,29.86,WSW,245,12.2,16.1,72,0.00,,,0.00,WeatherDisplay:10.37,2013-11-09 09:22:00,
2013-11-09 03:27:00,47.9,39.3,29.85,SSW,213,14.4,17.3,72,0.00,,,0.00,WeatherDisplay:10.37,2013-11-09 09:27:00,
2013-11-09 03:32:00,47.9,39.3,29.85,SW,224,12.2,15.0,72,0.00,,,0.00,WeatherDisplay:10.37,2013-11-09 09:32:00,
2013-11-09 03:37:00,47.9,39.3,29.85,WSW,255,11.7,16.0,72,0.00,,,0.00,WeatherDisplay:10.37,2013-11-09 09:37:00,
2013-11-09 03:42:00,48.0,39.4,29.86,SW,235,13.8,17.3,72,0.00,,,0.00,WeatherDisplay:10.37,2013-11-09 09:42:00,
2013-11-09 03:47:00,48.1,39.5,29.86,WSW,242,13.4,18.4,72,0.00,,,0.00,WeatherDisplay:10.37,2013-11-09 09:47:00,
2013-11-09 03:52:00,48.0,39.4,29.86,SW,229,13.9,16.1,72,0.00,,,0.00,WeatherDisplay:10.37,2013-11-09 09:52:00,
2013-11-09 03:57:00,48.1,39.5,29.86,WSW,255,14.8,18.4,72,0.00,,,0.00,WeatherDisplay:10.37,2013-11-09 09:57:00,
2013-11-09 04:02:00,47.8,39.2,29.86,SW,235,11.7,16.1,72,0.00,,,0.00,WeatherDisplay:10.37,2013-11-09 10:02:00,
2013-11-09 04:07:00,47.7,39.5,29.86,West,262,13.0,15.0,73,0.00,,,0.00,WeatherDisplay:10.37,2013-11-09 10:07:00,
2013-11-09 04:12:00,47.5,39.3,29.87,SW,225,11.9,13.8,73,0.00,,,0.00,WeatherDisplay:10.37,2013-11-09 10:12:00,
2013-11-09 04:17:00,47.4,39.2,29.87,WSW,238,14.3,16.1,73,0.00,,,0.00,WeatherDisplay:10.37,2013-11-09 10:17:00,
2013-11-09 04:22:00,47.4,39.2,29.87,SW,222,11.6,15.0,73,0.00,,,0.00,WeatherDisplay:10.37,2013-11-09 10:22:00,
2013-11-09 04:27:00,47.1,39.2,29.88,WSW,255,10.6,13.0,74,0.00,,,0.00,WeatherDisplay:10.37,2013-11-09 10:27:00,
2013-11-09 04:32:00,47.0,39.1,29.88,WSW,245,12.3,15.0,74,0.00,,,0.00,WeatherDisplay:10.37,2013-11-09 10:32:00,
2013-11-09 04:37:00,47.1,39.2,29.88,SW,233,11.0,15.0,74,0.00,,,0.00,WeatherDisplay:10.37,2013-11-09 10:37:00,
2013-11-09 04:42:00,47.1,39.2,29.88,WSW,257,11.9,13.8,74,0.00,,,0.00,WeatherDisplay:10.37,2013-11-09 10:42:00,
2013-11-09 04:47:00,47.2,39.3,29.88,West,259,11.6,15.0,74,0.00,,,0.00,WeatherDisplay:10.37,2013-11-09 10:47:00,
2013-11-09 04:52:00,47.1,39.2,29.88,WSW,257,10.7,15.0,74,0.00,,,0.00,WeatherDisplay:10.37,2013-11-09 10:52:00,
2013-11-09 04:57:00,47.3,39.4,29.88,WSW,257,10.3,13.8,74,0.00,,,0.00,WeatherDisplay:10.37,2013-11-09 10:57:00,
2013-11-09 05:02:00,47.2,39.3,29.88,WSW,240,9.4,11.5,74,0.00,,,0.00,WeatherDisplay:10.37,2013-11-09 11:02:00,
2013-11-09 05:07:00,47.3,39.4,29.89,WSW,252,11.8,12.7,74,0.00,,,0.00,WeatherDisplay:10.37,2013-11-09 11:07:00,
2013-11-09 05:12:00,47.2,39.3,29.89,West,259,11.0,11.5,74,0.00,,,0.00,WeatherDisplay:10.37,2013-11-09 11:12:00,
2013-11-09 05:17:00,47.0,39.1,29.89,WSW,252,9.5,11.5,74,0.00,,,0.00,WeatherDisplay:10.37,2013-11-09 11:17:00,
2013-11-09 05:22:00,47.0,39.1,29.89,West,260,10.1,15.0,74,0.00,,,0.00,WeatherDisplay:10.37,2013-11-09 11:22:00,
2013-11-09 05:27:00,46.8,39.3,29.89,WSW,257,11.7,12.7,75,0.00,,,0.00,WeatherDisplay:10.37,2013-11-09 11:27:00,
2013-11-09 05:32:00,46.6,39.1,29.89,WSW,245,9.3,12.7,75,0.00,,,0.00,WeatherDisplay:10.37,2013-11-09 11:32:00,
2013-11-09 05:37:00,46.4,38.9,29.89,WSW,250,10.0,11.5,75,0.00,,,0.00,WeatherDisplay:10.37,2013-11-09 11:37:00,
2013-11-09 05:42:00,46.2,39.1,29.89,WSW,246,8.1,10.4,76,0.00,,,0.00,WeatherDisplay:10.37,2013-11-09 11:42:00,
2013-11-09 05:47:00,46.1,39.0,29.89,West,271,8.8,12.0,76,0.00,,,0.00,WeatherDisplay:10.37,2013-11-09 11:47:00,
2013-11-09 05:52:00,46.0,38.9,29.89,WSW,250,9.5,11.5,76,0.00,,,0.00,WeatherDisplay:10.37,2013-11-09 11:52:00,
2013-11-09 05:58:00,45.8,39.0,29.90,WSW,245,9.6,12.7,77,0.00,,,0.00,WeatherDisplay:10.37,2013-11-09 11:58:00,
2013-11-09 06:03:00,45.9,39.1,29.90,SW,226,11.0,13.8,77,0.00,,,0.00,WeatherDisplay:10.37,2013-11-09 12:03:00,
2013-11-09 06:08:00,46.0,38.9,29.90,WSW,256,10.1,12.0,76,0.00,,,0.00,WeatherDisplay:10.37,2013-11-09 12:08:00,
2013-11-09 06:13:00,45.9,38.8,29.90,WSW,253,7.4,11.5,76,0.00,,,0.00,WeatherDisplay:10.37,2013-11-09 12:13:00,
2013-11-09 06:18:00,45.8,39.0,29.90,SW,228,8.8,12.7,77,0.00,CLR,,0.00,WeatherDisplay:10.37,2013-11-09 12:18:00,
2013-11-09 06:23:00,45.4,38.6,29.90,SW,226,8.7,10.4,77,0.00,CLR,,0.00,WeatherDisplay:10.37,2013-11-09 12:23:00,
2013-11-09 06:28:00,45.2,38.7,29.90,WSW,243,9.6,11.5,78,0.00,CLR,,0.00,WeatherDisplay:10.37,2013-11-09 12:28:00,
2013-11-09 06:33:00,45.2,38.4,29.90,WSW,247,9.3,11.5,77,0.00,CLR,,0.00,WeatherDisplay:10.37,2013-11-09 12:33:00,
2013-11-09 06:38:00,45.2,38.4,29.90,WSW,240,8.3,11.5,77,0.00,CLR,,0.00,WeatherDisplay:10.37,2013-11-09 12:38:00,
2013-11-09 06:43:00,45.2,38.7,29.91,SW,235,8.7,11.5,78,0.00,CLR,,0.00,WeatherDisplay:10.37,2013-11-09 12:43:00,
2013-11-09 06:48:00,45.1,38.6,29.91,SW,233,7.8,11.5,78,0.00,CLR,,0.00,WeatherDisplay:10.37,2013-11-09 12:48:00,
2013-11-09 06:53:00,45.1,38.6,29.91,WSW,240,8.8,11.5,78,0.00,CLR,,0.00,WeatherDisplay:10.37,2013-11-09 12:53:00,
2013-11-09 06:58:00,45.1,38.6,29.91,WSW,247,9.7,11.5,78,0.00,CLR,,0.00,WeatherDisplay:10.37,2013-11-09 12:58:00,
2013-11-09 07:03:00,45.2,38.7,29.91,WSW,240,9.2,11.5,78,0.00,CLR,,0.00,WeatherDisplay:10.37,2013-11-09 13:03:00,
2013-11-09 07:08:00,45.4,38.9,29.91,West,259,9.0,11.5,78,0.00,CLR,,0.00,WeatherDisplay:10.37,2013-11-09 13:08:00,
2013-11-09 07:13:00,45.3,38.8,29.92,WSW,246,8.9,11.5,78,0.00,CLR,,0.00,WeatherDisplay:10.37,2013-11-09 13:13:00,
2013-11-09 07:18:00,45.3,38.8,29.92,WSW,242,9.9,12.7,78,0.00,CLR,,0.00,WeatherDisplay:10.37,2013-11-09 13:18:00,
2013-11-09 07:23:00,45.5,38.7,29.92,WSW,252,8.3,11.5,77,0.00,CLR,,0.00,WeatherDisplay:10.37,2013-11-09 13:23:00,
2013-11-09 07:28:00,45.5,38.7,29.92,WSW,238,8.0,10.4,77,0.00,CLR,,0.00,WeatherDisplay:10.37,2013-11-09 13:28:00,
2013-11-09 07:33:00,45.6,38.8,29.92,West,260,8.5,12.7,77,0.00,CLR,,0.00,WeatherDisplay:10.37,2013-11-09 13:33:00,
2013-11-09 07:38:00,45.7,38.9,29.93,WSW,257,8.8,11.5,77,0.00,CLR,,0.00,WeatherDisplay:10.37,2013-11-09 13:38:00,
2013-11-09 07:43:00,45.7,38.9,29.92,West,271,7.3,9.2,77,0.00,CLR,,0.00,WeatherDisplay:10.37,2013-11-09 13:43:00,
2013-11-09 07:48:00,46.1,39.3,29.92,WSW,238,9.1,14.0,77,0.00,CLR,,0.00,WeatherDisplay:10.37,2013-11-09 13:48:00,
2013-11-09 07:53:00,46.7,39.5,29.93,WSW,256,8.1,11.5,76,0.00,CLR,,0.00,WeatherDisplay:10.37,2013-11-09 13:53:00,
2013-11-09 07:58:00,47.2,39.7,29.92,West,267,9.3,11.5,75,0.00,CLR,,0.00,WeatherDisplay:10.37,2013-11-09 13:58:00,
2013-11-09 08:03:00,47.6,39.7,29.92,West,271,11.1,13.8,74,0.00,CLR,,0.00,WeatherDisplay:10.37,2013-11-09 14:03:00,
2013-11-09 08:08:00,48.0,40.1,29.93,WSW,247,12.7,15.0,74,0.00,CLR,,0.00,WeatherDisplay:10.37,2013-11-09 14:08:00,
2013-11-09 08:13:00,48.4,40.1,29.93,WSW,252,11.9,16.1,73,0.00,CLR,,0.00,WeatherDisplay:10.37,2013-11-09 14:13:00,
2013-11-09 08:18:00,48.8,40.2,29.93,WSW,256,12.2,19.6,72,0.00,CLR,,0.00,WeatherDisplay:10.37,2013-11-09 14:18:00,
2013-11-09 08:23:00,49.1,40.5,29.93,West,260,11.2,13.8,72,0.00,CLR,,0.00,WeatherDisplay:10.37,2013-11-09 14:23:00,
2013-11-09 08:28:00,49.4,39.7,29.93,West,267,13.8,18.4,69,0.00,CLR,,0.00,WeatherDisplay:10.37,2013-11-09 14:28:00,
2013-11-09 08:33:00,49.8,40.4,29.93,West,263,10.8,15.0,70,0.00,CLR,,0.00,WeatherDisplay:10.37,2013-11-09 14:33:00,
2013-11-09 08:38:00,50.1,40.3,29.93,West,267,11.7,15.0,69,0.00,CLR,,0.00,WeatherDisplay:10.37,2013-11-09 14:38:00,
2013-11-09 08:43:00,50.4,40.2,29.93,West,262,10.4,11.5,68,0.00,CLR,,0.00,WeatherDisplay:10.37,2013-11-09 14:43:00,
2013-11-09 08:48:00,50.8,40.2,29.93,West,259,11.1,15.0,67,0.00,CLR,,0.00,WeatherDisplay:10.37,2013-11-09 14:48:00,
2013-11-09 08:53:00,51.2,40.6,29.94,WSW,257,12.9,16.0,67,0.00,CLR,,0.00,WeatherDisplay:10.37,2013-11-09 14:53:00,
2013-11-09 08:58:00,51.5,40.5,29.94,West,263,12.0,16.1,66,0.00,CLR,,0.00,WeatherDisplay:10.37,2013-11-09 14:58:00,
2013-11-09 09:03:00,51.8,40.8,29.94,West,277,14.2,17.3,66,0.00,CLR,,0.00,WeatherDisplay:10.37,2013-11-09 15:03:00,
2013-11-09 09:08:00,52.1,40.7,29.94,WNW,287,13.3,16.1,65,0.00,CLR,,0.00,WeatherDisplay:10.37,2013-11-09 15:08:00,
2013-11-09 09:13:00,52.3,40.5,29.94,West,266,11.4,17.3,64,0.00,CLR,,0.00,WeatherDisplay:10.37,2013-11-09 15:13:00,
2013-11-09 09:18:00,52.6,40.4,29.94,WNW,283,14.0,16.1,63,0.00,CLR,,0.00,WeatherDisplay:10.37,2013-11-09 15:18:00,
2013-11-09 09:23:00,52.7,40.9,29.94,WNW,290,12.2,16.1,64,0.00,CLR,,0.00,WeatherDisplay:10.37,2013-11-09 15:23:00,
2013-11-09 09:28:00,53.1,40.8,29.94,WNW,283,13.3,15.0,63,0.00,CLR,,0.00,WeatherDisplay:10.37,2013-11-09 15:28:00,
2013-11-09 09:33:00,53.1,40.4,29.94,West,269,11.4,15.0,62,0.00,CLR,,0.00,WeatherDisplay:10.37,2013-11-09 15:33:00,
2013-11-09 09:38:00,53.3,41.0,29.94,West,264,11.6,13.8,63,0.00,CLR,,0.00,WeatherDisplay:10.37,2013-11-09 15:38:00,
2013-11-09 09:43:00,53.5,40.8,29.94,West,280,12.3,15.0,62,0.00,CLR,,0.00,WeatherDisplay:10.37,2013-11-09 15:43:00,
2013-11-09 09:48:00,53.7,41.0,29.94,West,267,11.0,15.0,62,0.00,CLR,,0.00,WeatherDisplay:10.37,2013-11-09 15:48:00,
2013-11-09 09:53:00,53.7,40.6,29.94,West,270,13.9,16.1,61,0.00,CLR,,0.00,WeatherDisplay:10.37,2013-11-09 15:53:00,
2013-11-09 09:58:00,53.9,40.8,29.94,West,271,11.2,15.0,61,0.00,CLR,,0.00,WeatherDisplay:10.37,2013-11-09 15:58:00,
2013-11-09 10:03:00,54.2,40.6,29.94,WNW,302,10.9,15.0,60,0.00,CLR,,0.00,WeatherDisplay:10.37,2013-11-09 16:03:00,
2013-11-09 10:08:00,54.7,41.1,29.94,West,266,11.4,13.8,60,0.00,CLR,,0.00,WeatherDisplay:10.37,2013-11-09 16:08:00,
2013-11-09 10:13:00,54.9,40.4,29.94,West,259,10.9,13.8,58,0.00,CLR,,0.00,WeatherDisplay:10.37,2013-11-09 16:13:00,
2013-11-09 10:18:00,55.0,40.9,29.94,West,273,11.5,15.0,59,0.00,CLR,,0.00,WeatherDisplay:10.37,2013-11-09 16:18:00,
2013-11-09 10:23:00,55.5,41.4,29.94,West,279,12.2,15.0,59,0.00,CLR,,0.00,WeatherDisplay:10.37,2013-11-09 16:23:00,
2013-11-09 10:28:00,55.5,41.4,29.95,WNW,289,9.5,15.0,59,0.00,CLR,,0.00,WeatherDisplay:10.37,2013-11-09 16:28:00,
2013-11-09 10:33:00,55.6,40.6,29.95,NW,309,12.8,17.3,57,0.00,CLR,,0.00,WeatherDisplay:10.37,2013-11-09 16:33:00,
2013-11-09 10:38:00,55.8,40.3,29.95,WNW,297,14.8,17.3,56,0.00,CLR,,0.00,WeatherDisplay:10.37,2013-11-09 16:38:00,
2013-11-09 10:43:00,55.8,40.3,29.95,WNW,287,14.7,19.6,56,0.00,CLR,,0.00,WeatherDisplay:10.37,2013-11-09 16:43:00,
2013-11-09 10:49:00,56.0,40.5,29.95,West,259,14.2,19.0,56,0.00,CLR,,0.00,WeatherDisplay:10.37,2013-11-09 16:49:00,
2013-11-09 10:54:00,55.9,40.9,29.95,West,278,14.2,16.1,57,0.00,CLR,,0.00,WeatherDisplay:10.37,2013-11-09 16:54:00,
2013-11-09 10:59:00,56.0,41.0,29.96,WNW,287,16.1,19.6,57,0.00,CLR,,0.00,WeatherDisplay:10.37,2013-11-09 16:59:00,
2013-11-09 11:04:00,56.1,41.1,29.96,West,272,16.5,20.7,57,0.00,CLR,,0.00,WeatherDisplay:10.37,2013-11-09 17:04:00,
2013-11-09 11:09:00,56.2,41.2,29.96,WNW,283,16.5,18.4,57,0.00,CLR,,0.00,WeatherDisplay:10.37,2013-11-09 17:09:00,
2013-11-09 11:14:00,56.2,40.7,29.96,West,281,16.1,20.7,56,0.00,CLR,,0.00,WeatherDisplay:10.37,2013-11-09 17:14:00,
2013-11-09 11:19:00,56.5,41.0,29.95,West,274,14.0,19.6,56,0.00,CLR,,0.00,WeatherDisplay:10.37,2013-11-09 17:19:00,
2013-11-09 11:24:00,56.6,42.0,29.96,WSW,257,13.9,17.3,58,0.00,CLR,,0.00,WeatherDisplay:10.37,2013-11-09 17:24:00,
2013-11-09 11:29:00,56.9,41.4,29.95,West,266,14.5,19.6,56,0.00,CLR,,0.00,WeatherDisplay:10.37,2013-11-09 17:29:00,
2013-11-09 11:34:00,56.8,41.3,29.95,WNW,290,13.9,18.4,56,0.00,CLR,,0.00,WeatherDisplay:10.37,2013-11-09 17:34:00,
2013-11-09 11:39:00,56.8,41.3,29.95,WNW,287,14.9,18.4,56,0.00,CLR,,0.00,WeatherDisplay:10.37,2013-11-09 17:39:00,
2013-11-09 11:44:00,56.7,41.2,29.95,West,262,15.8,19.6,56,0.00,CLR,,0.00,WeatherDisplay:10.37,2013-11-09 17:44:00,
2013-11-09 11:49:00,57.2,41.6,29.95,West,273,11.9,14.0,56,0.00,CLR,,0.00,WeatherDisplay:10.37,2013-11-09 17:49:00,
2013-11-09 11:54:00,57.5,41.4,29.95,WNW,285,13.1,15.0,55,0.00,CLR,,0.00,WeatherDisplay:10.37,2013-11-09 17:54:00,
2013-11-09 11:59:00,57.6,42.0,29.95,WNW,300,11.8,16.0,56,0.00,CLR,,0.00,WeatherDisplay:10.37,2013-11-09 17:59:00,
2013-11-09 12:04:00,57.7,41.2,29.95,WNW,283,16.2,19.6,54,0.00,CLR,,0.00,WeatherDisplay:10.37,2013-11-09 18:04:00,
2013-11-09 12:09:00,57.9,42.3,29.95,West,279,11.8,15.0,56,0.00,CLR,,0.00,WeatherDisplay:10.37,2013-11-09 18:09:00,
2013-11-09 12:14:00,58.1,41.5,29.95,WNW,283,15.7,19.6,54,0.00,CLR,,0.00,WeatherDisplay:10.37,2013-11-09 18:14:00,
2013-11-09 12:19:00,58.2,41.6,29.95,NW,326,15.2,21.9,54,0.00,CLR,,0.00,WeatherDisplay:10.37,2013-11-09 18:19:00,
2013-11-09 12:24:00,58.1,42.0,29.95,WNW,283,12.6,17.0,55,0.00,CLR,,0.00,WeatherDisplay:10.37,2013-11-09 18:24:00,
2013-11-09 12:29:00,58.2,41.1,29.95,WNW,296,18.7,23.0,53,0.00,CLR,,0.00,WeatherDisplay:10.37,2013-11-09 18:29:00,
2013-11-09 12:34:00,58.0,41.0,29.95,West,280,16.2,20.7,53,0.00,CLR,,0.00,WeatherDisplay:10.37,2013-11-09 18:34:00,
2013-11-09 12:39:00,58.4,41.8,29.95,WNW,293,16.2,21.9,54,0.00,CLR,,0.00,WeatherDisplay:10.37,2013-11-09 18:39:00,
2013-11-09 12:44:00,58.7,42.1,29.95,WNW,285,15.8,19.6,54,0.00,CLR,,0.00,WeatherDisplay:10.37,2013-11-09 18:44:00,
2013-11-09 12:49:00,58.6,42.0,29.95,WNW,294,16.4,20.7,54,0.00,CLR,,0.00,WeatherDisplay:10.37,2013-11-09 18:49:00,
2013-11-09 12:54:00,58.7,42.6,29.95,NW,307,13.3,16.1,55,0.00,CLR,,0.00,WeatherDisplay:10.37,2013-11-09 18:54:00,
2013-11-09 12:59:00,59.0,42.8,29.95,West,276,15.1,19.6,55,0.00,CLR,,0.00,WeatherDisplay:10.37,2013-11-09 18:59:00,
2013-11-09 13:04:00,59.1,42.9,29.95,WNW,290,14.3,17.3,55,0.00,CLR,,0.00,WeatherDisplay:10.37,2013-11-09 19:04:00,
2013-11-09 13:09:00,59.3,42.6,29.95,WNW,293,13.8,17.3,54,0.00,CLR,,0.00,WeatherDisplay:10.37,2013-11-09 19:09:00,
2013-11-09 13:14:00,59.1,42.0,29.95,WNW,300,14.8,19.6,53,0.00,CLR,,0.00,WeatherDisplay:10.37,2013-11-09 19:14:00,
2013-11-09 13:19:00,59.4,42.3,29.95,WNW,286,11.6,13.8,53,0.00,CLR,,0.00,WeatherDisplay:10.37,2013-11-09 19:19:00,
2013-11-09 13:24:00,59.6,42.4,29.95,WNW,293,14.2,16.1,53,0.00,CLR,,0.00,WeatherDisplay:10.37,2013-11-09 19:24:00,
2013-11-09 13:29:00,59.5,41.9,29.96,West,277,16.9,19.6,52,0.00,CLR,,0.00,WeatherDisplay:10.37,2013-11-09 19:29:00,
2013-11-09 13:34:00,59.6,41.9,29.96,WNW,296,13.9,16.1,52,0.00,CLR,,0.00,WeatherDisplay:10.37,2013-11-09 19:34:00,
2013-11-09 13:39:00,59.8,41.6,29.96,WNW,293,16.4,19.6,51,0.00,CLR,,0.00,WeatherDisplay:10.37,2013-11-09 19:39:00,
2013-11-09 13:44:00,59.2,41.6,29.96,WNW,290,16.6,19.6,52,0.00,CLR,,0.00,WeatherDisplay:10.37,2013-11-09 19:44:00,
2013-11-09 13:49:00,59.3,42.2,29.97,WNW,295,16.8,23.0,53,0.00,CLR,,0.00,WeatherDisplay:10.37,2013-11-09 19:49:00,
2013-11-09 13:54:00,58.9,41.3,29.97,NW,307,18.1,25.3,52,0.00,CLR,,0.00,WeatherDisplay:10.37,2013-11-09 19:54:00,
2013-11-09 13:59:00,58.7,41.1,29.97,WNW,297,17.7,25.0,52,0.00,CLR,,0.00,WeatherDisplay:10.37,2013-11-09 19:59:00,
2013-11-09 14:04:00,58.7,41.6,29.97,WNW,302,15.4,19.6,53,0.00,CLR,,0.00,WeatherDisplay:10.37,2013-11-09 20:04:00,
2013-11-09 14:09:00,58.9,42.3,29.98,West,267,15.8,19.6,54,0.00,CLR,,0.00,WeatherDisplay:10.37,2013-11-09 20:09:00,
2013-11-09 14:14:00,58.7,41.6,29.98,West,280,18.1,23.0,53,0.00,CLR,,0.00,WeatherDisplay:10.37,2013-11-09 20:14:00,
2013-11-09 14:19:00,58.6,42.0,29.98,WNW,294,15.8,19.6,54,0.00,CLR,,0.00,WeatherDisplay:10.37,2013-11-09 20:19:00,
2013-11-09 14:24:00,58.4,41.8,29.98,WNW,290,16.8,20.7,54,0.00,CLR,,0.00,WeatherDisplay:10.37,2013-11-09 20:24:00,
2013-11-09 14:29:00,58.4,42.3,29.98,West,281,15.2,19.6,55,0.00,CLR,,0.00,WeatherDisplay:10.37,2013-11-09 20:29:00,
2013-11-09 14:34:00,58.3,42.2,29.98,West,272,17.0,23.0,55,0.00,CLR,,0.00,WeatherDisplay:10.37,2013-11-09 20:34:00,
2013-11-09 14:39:00,58.5,42.4,29.99,NW,311,10.6,15.0,55,0.00,CLR,,0.00,WeatherDisplay:10.37,2013-11-09 20:39:00,
2013-11-09 14:44:00,58.4,41.8,29.99,NW,311,14.0,18.4,54,0.00,CLR,,0.00,WeatherDisplay:10.37,2013-11-09 20:44:00,
2013-11-09 14:49:00,58.0,41.9,29.99,NW,306,14.7,19.6,55,0.00,CLR,,0.00,WeatherDisplay:10.37,2013-11-09 20:49:00,
2013-11-09 14:54:00,57.8,41.7,29.99,WNW,284,12.1,15.0,55,0.00,CLR,,0.00,WeatherDisplay:10.37,2013-11-09 20:54:00,
2013-11-09 14:59:00,57.6,41.5,30.00,NW,304,17.2,19.6,55,0.00,CLR,,0.00,WeatherDisplay:10.37,2013-11-09 20:59:00,
2013-11-09 15:04:00,57.4,41.8,30.00,NW,312,14.4,17.3,56,0.00,CLR,,0.00,WeatherDisplay:10.37,2013-11-09 21:04:00,
2013-11-09 15:09:00,57.3,41.7,30.00,WNW,301,13.8,16.1,56,0.00,CLR,,0.00,WeatherDisplay:10.37,2013-11-09 21:09:00,
2013-11-09 15:14:00,57.2,41.6,30.00,NW,306,14.4,17.3,56,0.00,CLR,,0.00,WeatherDisplay:10.37,2013-11-09 21:14:00,
2013-11-09 15:19:00,57.1,41.5,30.00,West,278,12.7,16.1,56,0.00,CLR,,0.00,WeatherDisplay:10.37,2013-11-09 21:19:00,
2013-11-09 15:24:00,57.1,42.0,30.00,WNW,302,11.8,17.3,57,0.00,CLR,,0.00,WeatherDisplay:10.37,2013-11-09 21:24:00,
2013-11-09 15:29:00,56.9,40.9,30.01,WNW,290,15.6,19.6,55,0.00,CLR,,0.00,WeatherDisplay:10.37,2013-11-09 21:29:00,
2013-11-09 15:34:00,56.6,41.5,30.01,WNW,296,11.2,16.0,57,0.00,CLR,,0.00,WeatherDisplay:10.37,2013-11-09 21:34:00,
2013-11-09 15:39:00,56.3,41.3,30.01,NW,304,10.9,16.1,57,0.00,CLR,,0.00,WeatherDisplay:10.37,2013-11-09 21:39:00,
2013-11-09 15:44:00,56.1,41.1,30.01,WNW,302,11.0,13.8,57,0.00,CLR,,0.00,WeatherDisplay:10.37,2013-11-09 21:44:00,
2013-11-09 15:49:00,55.8,40.8,30.01,WNW,302,13.9,16.1,57,0.00,CLR,,0.00,WeatherDisplay:10.37,2013-11-09 21:49:00,
2013-11-09 15:54:00,55.5,40.5,30.02,NW,306,13.0,18.4,57,0.00,CLR,,0.00,WeatherDisplay:10.37,2013-11-09 21:54:00,
2013-11-09 15:59:00,55.2,41.1,30.02,WNW,302,10.6,13.8,59,0.00,CLR,,0.00,WeatherDisplay:10.37,2013-11-09 21:59:00,
2013-11-09 16:04:00,55.0,40.5,30.03,WNW,302,15.3,18.4,58,0.00,CLR,,0.00,WeatherDisplay:10.37,2013-11-09 22:04:00,
2013-11-09 16:09:00,54.7,39.8,30.03,NW,307,15.6,17.3,57,0.00,CLR,,0.00,WeatherDisplay:10.37,2013-11-09 22:09:00,
2013-11-09 16:14:00,54.4,40.4,30.04,NW,307,11.1,15.0,59,0.00,CLR,,0.00,WeatherDisplay:10.37,2013-11-09 22:14:00,
2013-11-09 16:19:00,53.8,39.8,30.04,WNW,302,10.5,14.0,59,0.00,CLR,,0.00,WeatherDisplay:10.37,2013-11-09 22:19:00,
2013-11-09 16:24:00,53.4,39.4,30.04,WNW,302,10.3,13.8,59,0.00,CLR,,0.00,WeatherDisplay:10.37,2013-11-09 22:24:00,
2013-11-09 16:29:00,53.1,39.1,30.04,NW,309,11.7,18.4,59,0.00,CLR,,0.00,WeatherDisplay:10.37,2013-11-09 22:29:00,
2013-11-09 16:34:00,52.7,39.2,30.04,WNW,293,9.6,11.5,60,0.00,CLR,,0.00,WeatherDisplay:10.37,2013-11-09 22:34:00,
2013-11-09 16:39:00,52.2,39.1,30.04,WNW,284,10.0,10.4,61,0.00,CLR,,0.00,WeatherDisplay:10.37,2013-11-09 22:39:00,
2013-11-09 16:44:00,51.7,39.1,30.04,WNW,300,8.5,10.4,62,0.00,CLR,,0.00,WeatherDisplay:10.37,2013-11-09 22:44:00,
2013-11-09 16:49:00,51.2,39.0,30.04,WNW,295,8.2,11.5,63,0.00,CLR,,0.00,WeatherDisplay:10.37,2013-11-09 22:49:00,
2013-11-09 16:54:00,50.6,38.9,30.04,WNW,290,7.3,10.0,64,0.00,CLR,,0.00,WeatherDisplay:10.37,2013-11-09 22:54:00,
2013-11-09 16:59:00,50.1,38.8,30.04,WNW,290,6.0,6.9,65,0.00,CLR,,0.00,WeatherDisplay:10.37,2013-11-09 22:59:00,
2013-11-09 17:04:00,49.5,38.6,30.04,West,281,5.7,6.9,66,0.00,CLR,,0.00,WeatherDisplay:10.37,2013-11-09 23:04:00,
2013-11-09 17:09:00,49.1,38.6,30.04,WNW,285,5.9,6.9,67,0.00,CLR,,0.00,WeatherDisplay:10.37,2013-11-09 23:09:00,
2013-11-09 17:15:00,48.6,38.5,30.04,WNW,290,5.1,7.0,68,0.00,CLR,,0.00,WeatherDisplay:10.37,2013-11-09 23:15:00,
2013-11-09 17:20:00,48.1,38.4,30.05,WNW,294,3.6,4.6,69,0.00,CLR,,0.00,WeatherDisplay:10.37,2013-11-09 23:20:00,
2013-11-09 17:25:00,47.4,38.1,30.05,WNW,291,5.0,6.0,70,0.00,CLR,,0.00,WeatherDisplay:10.37,2013-11-09 23:25:00,
2013-11-09 17:30:00,46.8,37.9,30.05,WNW,287,3.0,6.0,71,0.00,CLR,,0.00,WeatherDisplay:10.37,2013-11-09 23:30:00,
2013-11-09 17:35:00,46.1,37.9,30.05,WNW,282,3.2,3.5,73,0.00,CLR,,0.00,WeatherDisplay:10.37,2013-11-09 23:35:00,
2013-11-09 17:40:00,45.7,37.9,30.05,West,275,3.1,4.0,74,0.00,CLR,,0.00,WeatherDisplay:10.37,2013-11-09 23:40:00,
2013-11-09 17:45:00,45.5,38.0,30.06,WNW,291,4.1,5.0,75,0.00,CLR,,0.00,WeatherDisplay:10.37,2013-11-09 23:45:00,
2013-11-09 17:50:00,45.6,38.1,30.06,WNW,283,5.0,6.0,75,0.00,CLR,,0.00,WeatherDisplay:10.37,2013-11-09 23:50:00,
2013-11-09 17:55:00,46.3,38.8,30.06,WNW,283,6.0,8.0,75,0.00,CLR,,0.00,WeatherDisplay:10.37,2013-11-09 23:55:00,
2013-11-09 18:00:00,46.9,39.0,30.07,WNW,285,5.0,9.0,74,0.00,CLR,,0.00,WeatherDisplay:10.37,2013-11-10 00:00:00,
2013-11-09 18:05:00,47.0,38.8,30.07,WNW,284,5.0,5.8,73,0.00,CLR,,0.00,WeatherDisplay:10.37,2013-11-10 00:05:00,
2013-11-09 18:10:00,46.9,38.7,30.07,WNW,283,5.6,6.9,73,0.00,CLR,,0.00,WeatherDisplay:10.37,2013-11-10 00:10:00,
2013-11-09 18:15:00,46.7,38.5,30.07,West,279,5.5,6.9,73,0.00,CLR,,0.00,WeatherDisplay:10.37,2013-11-10 00:15:00,
2013-11-09 18:20:00,46.3,38.1,30.07,WNW,290,4.1,4.6,73,0.00,CLR,,0.00,WeatherDisplay:10.37,2013-11-10 00:20:00,
2013-11-09 18:25:00,45.9,38.1,30.07,WNW,290,3.9,4.0,74,0.00,CLR,,0.00,WeatherDisplay:10.37,2013-11-10 00:25:00,
2013-11-09 18:30:00,45.3,37.5,30.08,WNW,297,2.6,4.0,74,0.00,CLR,,0.00,WeatherDisplay:10.37,2013-11-10 00:30:00,
2013-11-09 18:35:00,44.7,37.3,30.08,WNW,290,3.4,3.5,75,0.00,CLR,,0.00,WeatherDisplay:10.37,2013-11-10 00:35:00,
2013-11-09 18:40:00,44.6,37.2,30.08,WNW,293,3.0,4.0,75,0.00,CLR,,0.00,WeatherDisplay:10.37,2013-11-10 00:40:00,
2013-11-09 18:45:00,44.5,37.4,30.08,West,277,2.9,3.5,76,0.00,CLR,,0.00,WeatherDisplay:10.37,2013-11-10 00:45:00,
2013-11-09 18:50:00,44.2,37.1,30.08,WNW,283,3.0,3.5,76,0.00,CLR,,0.00,WeatherDisplay:10.37,2013-11-10 00:50:00,
2013-11-09 18:55:00,43.7,37.0,30.08,West,276,3.0,4.0,77,0.00,CLR,,0.00,WeatherDisplay:10.37,2013-11-10 00:55:00,
2013-11-09 19:00:00,43.6,37.2,30.08,WNW,287,3.1,4.0,78,0.00,CLR,,0.00,WeatherDisplay:10.37,2013-11-10 01:00:00,
2013-11-09 19:05:00,43.8,37.4,30.08,West,275,3.7,4.0,78,0.00,CLR,,0.00,WeatherDisplay:10.37,2013-11-10 01:05:00,
2013-11-09 19:10:00,43.9,37.5,30.09,WNW,295,3.4,3.5,78,0.00,CLR,,0.00,WeatherDisplay:10.37,2013-11-10 01:10:00,
2013-11-09 19:15:00,44.0,37.3,30.09,West,271,4.1,4.6,77,0.00,CLR,,0.00,WeatherDisplay:10.37,2013-11-10 01:15:00,
2013-11-09 19:20:00,44.0,37.3,30.09,WNW,286,3.4,4.0,77,0.00,CLR,,0.00,WeatherDisplay:10.37,2013-11-10 01:20:00,
2013-11-09 19:25:00,43.9,37.2,30.09,WNW,282,3.9,4.0,77,0.00,CLR,,0.00,WeatherDisplay:10.37,2013-11-10 01:25:00,
2013-11-09 19:30:00,43.8,37.1,30.09,WNW,290,5.0,5.8,77,0.00,CLR,,0.00,WeatherDisplay:10.37,2013-11-10 01:30:00,
2013-11-09 19:35:00,43.7,37.3,30.10,WNW,295,4.6,8.1,78,0.00,CLR,,0.00,WeatherDisplay:10.37,2013-11-10 01:35:00,
2013-11-09 19:40:00,43.6,37.2,30.10,WNW,295,4.7,4.7,78,0.00,CLR,,0.00,WeatherDisplay:10.37,2013-11-10 01:40:00,
2013-11-09 19:45:00,44.1,37.7,30.10,WNW,297,5.7,6.9,78,0.00,CLR,,0.00,WeatherDisplay:10.37,2013-11-10 01:45:00,
2013-11-09 19:50:00,44.7,37.9,30.10,WNW,299,5.6,9.2,77,0.00,CLR,,0.00,WeatherDisplay:10.37,2013-11-10 01:50:00,
2013-11-09 19:55:00,45.2,38.1,30.10,NW,307,7.7,10.4,76,0.00,CLR,,0.00,WeatherDisplay:10.37,2013-11-10 01:55:00,
2013-11-09 20:00:00,45.8,38.3,30.11,NW,305,7.8,9.2,75,0.00,CLR,,0.00,WeatherDisplay:10.37,2013-11-10 02:00:00,
2013-11-09 20:05:00,46.1,38.3,30.10,NW,314,9.0,11.5,74,0.00,CLR,,0.00,WeatherDisplay:10.37,2013-11-10 02:05:00,
2013-11-09 20:10:00,46.7,38.5,30.11,NW,311,9.3,11.5,73,0.00,CLR,,0.00,WeatherDisplay:10.37,2013-11-10 02:10:00,
2013-11-09 20:15:00,46.7,38.1,30.11,NW,304,9.1,11.5,72,0.00,CLR,,0.00,WeatherDisplay:10.37,2013-11-10 02:15:00,
2013-11-09 20:20:00,46.9,38.3,30.11,NW,307,10.9,17.3,72,0.00,CLR,,0.00,WeatherDisplay:10.37,2013-11-10 02:20:00,
2013-11-09 20:25:00,46.9,38.3,30.11,NNE,13,9.5,14.0,72,0.00,CLR,,0.00,WeatherDisplay:10.37,2013-11-10 02:25:00,
2013-11-09 20:30:00,46.7,38.1,30.12,NE,41,10.8,13.8,72,0.00,CLR,,0.00,WeatherDisplay:10.37,2013-11-10 02:30:00,
2013-11-09 20:35:00,46.6,38.1,30.12,WNW,291,9.4,12.7,72,0.00,CLR,,0.00,WeatherDisplay:10.37,2013-11-10 02:35:00,
2013-11-09 20:40:00,46.3,38.1,30.12,NW,307,8.2,12.0,73,0.00,CLR,,0.00,WeatherDisplay:10.37,2013-11-10 02:40:00,
2013-11-09 20:45:00,46.0,37.8,30.12,NNW,328,8.6,11.5,73,0.00,CLR,,0.00,WeatherDisplay:10.37,2013-11-10 02:45:00,
2013-11-09 20:50:00,45.7,37.9,30.12,NW,314,8.0,13.8,74,0.00,CLR,,0.00,WeatherDisplay:10.37,2013-11-10 02:50:00,
2013-11-09 20:55:00,45.6,37.8,30.12,North,352,7.9,11.5,74,0.00,CLR,,0.00,WeatherDisplay:10.37,2013-11-10 02:55:00,
2013-11-09 21:00:00,45.2,37.7,30.13,NW,316,7.8,11.5,75,0.00,CLR,,0.00,WeatherDisplay:10.37,2013-11-10 03:00:00,
2013-11-09 21:05:00,45.0,37.6,30.13,NW,309,8.8,12.7,75,0.00,CLR,,0.00,WeatherDisplay:10.37,2013-11-10 03:05:00,
2013-11-09 21:10:00,44.5,37.4,30.14,NNW,328,5.6,8.1,76,0.00,CLR,,0.00,WeatherDisplay:10.37,2013-11-10 03:10:00,
2013-11-09 21:15:00,44.1,37.3,30.14,WNW,290,8.0,9.2,77,0.00,CLR,,0.00,WeatherDisplay:10.37,2013-11-10 03:15:00,
2013-11-09 21:20:00,44.1,37.3,30.14,NNE,27,5.8,9.2,77,0.00,CLR,,0.00,WeatherDisplay:10.37,2013-11-10 03:20:00,
2013-11-09 21:25:00,44.0,37.3,30.14,WNW,282,8.2,10.4,77,0.00,CLR,,0.00,WeatherDisplay:10.37,2013-11-10 03:25:00,
2013-11-09 21:30:00,43.8,37.1,30.15,NNW,328,7.6,9.2,77,0.00,CLR,,0.00,WeatherDisplay:10.37,2013-11-10 03:30:00,
2013-11-09 21:36:00,43.6,37.2,30.15,NW,314,7.5,10.0,78,0.00,CLR,,0.00,WeatherDisplay:10.37,2013-11-10 03:36:00,
2013-11-09 21:41:00,43.4,37.0,30.15,NW,307,7.8,11.5,78,0.00,CLR,,0.00,WeatherDisplay:10.37,2013-11-10 03:41:00,
2013-11-09 21:46:00,43.3,37.2,30.15,NW,304,11.0,12.7,79,0.00,CLR,,0.00,WeatherDisplay:10.37,2013-11-10 03:46:00,
2013-11-09 21:51:00,43.7,37.3,30.16,NW,316,11.0,11.5,78,0.00,CLR,,0.00,WeatherDisplay:10.37,2013-11-10 03:51:00,
2013-11-09 21:56:00,43.9,37.2,30.16,NW,304,10.8,13.8,77,0.00,CLR,,0.00,WeatherDisplay:10.37,2013-11-10 03:56:00,
2013-11-09 22:01:00,43.8,37.1,30.16,NW,310,10.5,12.7,77,0.00,CLR,,0.00,WeatherDisplay:10.37,2013-11-10 04:01:00,
2013-11-09 22:06:00,43.6,36.9,30.16,WNW,300,10.0,11.5,77,0.00,CLR,,0.00,WeatherDisplay:10.37,2013-11-10 04:06:00,
2013-11-09 22:11:00,43.4,36.7,30.17,WNW,292,10.4,12.7,77,0.00,CLR,,0.00,WeatherDisplay:10.37,2013-11-10 04:11:00,
2013-11-09 22:16:00,43.4,36.7,30.17,NW,313,12.9,16.1,77,0.00,CLR,,0.00,WeatherDisplay:10.37,2013-11-10 04:16:00,
2013-11-09 22:21:00,43.2,36.5,30.17,NW,313,8.4,11.5,77,0.00,CLR,,0.00,WeatherDisplay:10.37,2013-11-10 04:21:00,
2013-11-09 22:26:00,42.9,36.5,30.17,NNW,347,7.5,11.5,78,0.00,CLR,,0.00,WeatherDisplay:10.37,2013-11-10 04:26:00,
2013-11-09 22:31:00,42.8,36.4,30.18,NW,315,6.7,8.1,78,0.00,CLR,,0.00,WeatherDisplay:10.37,2013-11-10 04:31:00,
2013-11-09 22:36:00,42.7,36.3,30.18,NW,304,7.7,11.5,78,0.00,CLR,,0.00,WeatherDisplay:10.37,2013-11-10 04:36:00,
2013-11-09 22:41:00,42.2,36.2,30.18,NNW,330,6.8,11.5,79,0.00,CLR,,0.00,WeatherDisplay:10.37,2013-11-10 04:41:00,
2013-11-09 22:46:00,42.1,36.1,30.18,NNW,339,5.4,8.1,79,0.00,CLR,,0.00,WeatherDisplay:10.37,2013-11-10 04:46:00,
2013-11-09 22:51:00,41.9,36.2,30.18,NW,307,5.6,6.9,80,0.00,CLR,,0.00,WeatherDisplay:10.37,2013-11-10 04:51:00,
2013-11-09 22:56:00,41.6,36.2,30.18,North,350,5.1,6.0,81,0.00,CLR,,0.00,WeatherDisplay:10.37,2013-11-10 04:56:00,
2013-11-09 23:01:00,41.3,35.9,30.18,NW,304,5.7,6.0,81,0.00,CLR,,0.00,WeatherDisplay:10.37,2013-11-10 05:01:00,
2013-11-09 23:06:00,40.8,35.4,30.18,NW,309,6.4,8.1,81,0.00,CLR,,0.00,WeatherDisplay:10.37,2013-11-10 05:06:00,
2013-11-09 23:11:00,40.6,35.5,30.18,WNW,302,6.3,9.2,82,0.00,CLR,,0.00,WeatherDisplay:10.37,2013-11-10 05:11:00,
2013-11-09 23:16:00,40.3,35.5,30.18,NW,309,4.6,6.9,83,0.00,CLR,,0.00,WeatherDisplay:10.37,2013-11-10 05:16:00,
2013-11-09 23:21:00,40.3,35.2,30.19,NW,304,5.6,6.9,82,0.00,CLR,,0.00,WeatherDisplay:10.37,2013-11-10 05:21:00,
2013-11-09 23:26:00,39.9,35.2,30.19,NW,305,4.9,5.8,83,0.00,CLR,,0.00,WeatherDisplay:10.37,2013-11-10 05:26:00,
2013-11-09 23:31:00,39.7,35.3,30.19,NW,311,4.8,6.9,84,0.00,CLR,,0.00,WeatherDisplay:10.37,2013-11-10 05:31:00,
2013-11-09 23:36:00,39.4,35.0,30.19,NW,313,5.1,6.9,84,0.00,CLR,,0.00,WeatherDisplay:10.37,2013-11-10 05:36:00,
2013-11-09 23:41:00,39.2,34.8,30.20,NW,314,4.4,5.8,84,0.00,CLR,,0.00,WeatherDisplay:10.37,2013-11-10 05:41:00,
2013-11-09 23:46:00,39.0,34.9,30.20,NW,305,4.9,4.9,85,0.00,CLR,,0.00,WeatherDisplay:10.37,2013-11-10 05:46:00,
2013-11-09 23:51:00,39.3,34.9,30.20,WNW,299,7.7,9.0,84,0.00,CLR,,0.00,WeatherDisplay:10.37,2013-11-10 05:51:00,
2013-11-09 23:56:00,39.6,34.6,30.20,NW,309,7.1,9.2,82,0.00,CLR,,0.00,WeatherDisplay:10.37,2013-11-10 05:56:00,